Hurricane Symbol View the latest observations near Atlantic Tropical Depression Alberto.

Station PTCR1 - 8452951 - Potter Cove, Prudence Island, RI Image indicating link to RSS feed of recent meteorological observations for station PTCR1


Conditions at PTCR1 as of
(11:18 am EDT)
1518 GMT on 06/20/2024:
     

Click on the graph icon in the table below to see a time series plot of the last five days of that observation.

5-day plot - Wind Direction Wind Direction (WDIR): SW ( 220 deg true )
5-day plot - Wind Speed Wind Speed (WSPD): 6.0 kts
5-day plot - Wind Gust Wind Gust (GST): 12.0 kts
5-day plot - Atmospheric Pressure Atmospheric Pressure (PRES):30.29 in
5-day plot - Air Temperature Air Temperature (ATMP): 78.1 °F
5-day plot - Wind Speed at 10 Meters Wind Speed at 10 meters (WSPD10M): 5.8 kts
5-day plot - Wind Speed at 20 Meters Wind Speed at 20 meters (WSPD20M): 7.8 kts
5-day plot -  Wind Speed, Wind Gust and Atmospheric Pressure Combined plot of Wind Speed, Gust, and Air Pressure
NOS Water Level Observation Network Water Level
Previous observations
TIME
(EDT)
5-day plot - Wind Direction
WDIR
 
5-day plot - Wind Speed
WSPD
kts
5-day plot - Wind Gust
GST
kts
5-day plot - Wave Height
WVHT
ft
5-day plot - Dominant Wave Period
DPD
sec
5-day plot - Average Wave Period
APD
sec
5-day plot - Mean Wave Direction
MWD
 
5-day plot - Atmospheric Pressure
PRES
in
5-day plot - Pressure Tendency
PTDY
in
5-day plot - Air Temperature
ATMP
°F
5-day plot - Water Temperature
WTMP
°F
5-day plot - Dew Point
DEWP
°F
5-day plot - Salinity
SAL
psu
5-day plot - Visibility
VIS
nmi
5-day plot - Tide (above MLLW)
TIDE
ft
2024-06-20 11:12 am SW 7.0 12.0----30.29- 77.4-----
2024-06-20 11:06 am SW 6.0 11.1----30.29- 77.9-----
2024-06-20 11:00 am SW 6.0 11.1----30.29-0.01 77.9-----
2024-06-20 10:54 am SW 6.0 11.1----30.29- 77.5-----
2024-06-20 10:48 am SW 4.1 8.0----30.29- 77.9-----
2024-06-20 10:42 am SW 4.1 8.9----30.29- 78.4-----
2024-06-20 10:36 am SW 4.1 11.1----30.30- 77.9-----
2024-06-20 10:30 am SW 7.0 11.1----30.29- 77.0-----
2024-06-20 10:24 am SW 6.0 9.9----30.29- 76.8-----
2024-06-20 10:18 am SW 6.0 8.9----30.29- 77.0-----
2024-06-20 10:12 am SW 4.1 8.0----30.29- 77.4-----
2024-06-20 10:06 am SW 2.9 8.0----30.29- 77.5-----
2024-06-20 10:00 am SW 5.1 8.9----30.29+0.00 76.6-----
2024-06-20 09:54 am SW 5.1 8.9----30.29- 75.7-----
2024-06-20 09:48 am SW 4.1 8.0----30.29- 75.7-----
2024-06-20 09:42 amWSW 4.1 7.0----30.29- 76.1-----
2024-06-20 09:36 am SW 5.1 9.9----30.29- 75.4-----
2024-06-20 09:30 am SW 5.1 8.9----30.29- 74.7-----
2024-06-20 09:24 am SW 5.1 8.9----30.29- 74.5-----
2024-06-20 09:18 amWSW 4.1 8.0----30.29- 74.8-----
2024-06-20 09:12 amWSW 2.9 7.0----30.29- 74.7-----
2024-06-20 09:06 am SW 4.1 7.0----30.29- 74.3-----
2024-06-20 09:00 am SW 5.1 7.0----30.29+0.00 74.7-----
2024-06-20 08:54 amWSW 4.1 8.9----30.29- 74.1-----
2024-06-20 08:48 am SW 5.1 8.9----30.29- 73.0-----
2024-06-20 08:42 am SW 5.1 7.0----30.29- 72.9-----
2024-06-20 08:36 amWSW 2.9 6.0----30.30- 73.2-----
2024-06-20 08:30 am SW 4.1 8.0----30.30- 74.3-----
2024-06-20 08:24 amWSW 4.1 7.0----30.30- 74.1-----
2024-06-20 08:18 amWSW 4.1 7.0----30.30- 73.9-----
2024-06-20 08:12 amWSW 4.1 6.0----30.30- 73.9-----
2024-06-20 08:06 amWSW 2.9 7.0----30.30- 73.8-----
2024-06-20 08:00 amWSW 4.1 6.0----30.30+0.00 73.4-----
2024-06-20 07:54 amWSW 4.1 6.0----30.30- 73.2-----
2024-06-20 07:48 am SW 1.9 5.1----30.30- 73.4-----
2024-06-20 07:42 am SW 1.9 5.1----30.30- 73.4-----
2024-06-20 07:36 am W 4.1 6.0----30.30- 73.0-----
2024-06-20 07:30 amWSW 2.9 6.0----30.30- 72.9-----
2024-06-20 07:24 amWSW 4.1 6.0----30.30- 72.7-----
2024-06-20 07:18 amWSW 5.1 9.9----30.30- 72.1-----
2024-06-20 07:12 amWSW 5.1 7.0----30.30- 71.8-----
2024-06-20 07:06 amWSW 5.1 8.0----30.30- 71.4-----
2024-06-20 07:00 amWSW 5.1 8.9----30.30+0.00 71.2-----
2024-06-20 06:54 amWSW 6.0 8.9----30.30- 71.1-----
2024-06-20 06:48 amWSW 6.0 8.9----30.30- 70.9-----
2024-06-20 06:42 amWSW 5.1 8.9----30.30- 70.9-----
2024-06-20 06:36 amWSW 6.0 9.9----30.30- 70.7-----
2024-06-20 06:30 amWSW 7.0 9.9----30.30- 70.5-----
2024-06-20 06:24 amWSW 5.1 8.9----30.30- 70.5-----
2024-06-20 06:18 amWSW 5.1 8.9----30.30- 70.3-----
2024-06-20 06:12 amWSW 5.1 7.0----30.30- 70.2-----
2024-06-20 06:06 amWSW 5.1 8.0----30.30- 70.2-----
2024-06-20 06:00 amWSW 5.1 7.0----30.30-0.01 70.0-----
2024-06-20 05:54 amWSW 6.0 8.9----30.30- 70.0-----
2024-06-20 05:48 amWSW 6.0 8.0----30.30- 70.0-----
2024-06-20 05:42 amWSW 4.1 8.0----30.30- 69.8-----
2024-06-20 05:36 amWSW 4.1 7.0----30.29- 69.8-----
2024-06-20 05:30 amWSW 5.1 8.0----30.29- 69.8-----
2024-06-20 05:24 amWSW 5.1 9.9----30.29- 69.8-----
2024-06-20 05:18 amWSW 6.0 9.9----30.30- 69.8-----
2024-06-20 05:12 amWSW 7.0 9.9----30.29- 69.8-----
2024-06-20 05:06 amWSW 5.1 9.9----30.30- 69.8-----
2024-06-20 05:00 amWSW 6.0 9.9----30.30+0.00 69.8-----
2024-06-20 04:54 am W 7.0 11.1----30.30- 69.8-----
2024-06-20 04:48 amWSW 6.0 11.1----30.30- 69.8-----
2024-06-20 04:42 am W 7.0 11.1----30.30- 69.8-----
2024-06-20 04:36 am W 7.0 11.1----30.30- 69.8-----
2024-06-20 04:30 am W 7.0 8.9----30.30- 69.8-----
2024-06-20 04:24 am W 6.0 9.9----30.30- 69.6-----
2024-06-20 04:18 amWSW 6.0 8.0----30.30- 69.6-----
2024-06-20 04:12 amWSW 5.1 8.9----30.30- 69.4-----
2024-06-20 04:06 amWSW 5.1 8.9----30.30- 69.4-----
2024-06-20 04:00 amWSW 4.1 8.9----30.30-0.01 69.3-----
2024-06-20 03:54 amWSW 5.1 8.0----30.30- 69.4-----
2024-06-20 03:48 amWSW 5.1 8.0----30.30- 69.3-----
2024-06-20 03:42 amWSW 5.1 7.0----30.31- 69.3-----
2024-06-20 03:36 amWSW 5.1 7.0----30.31- 69.3-----
2024-06-20 03:30 amWSW 5.1 7.0----30.31- 69.3-----
2024-06-20 03:24 amWSW 5.1 7.0----30.31- 69.3-----
2024-06-20 03:18 amWSW 5.1 7.0----30.31- 69.3-----
2024-06-20 03:12 amWSW 5.1 7.0----30.31- 69.3-----
2024-06-20 03:06 amWSW 5.1 8.0----30.31- 69.4-----
2024-06-20 03:00 amWSW 5.1 8.9----30.31-0.02 69.4-----
2024-06-20 02:54 amWSW 4.1 7.0----30.31- 69.4-----
2024-06-20 02:48 amWSW 4.1 8.0----30.31- 69.6-----
2024-06-20 02:42 amWSW 4.1 7.0----30.31- 69.6-----
2024-06-20 02:36 amWSW 4.1 8.0----30.31- 69.8-----
2024-06-20 02:30 amWSW 4.1 8.0----30.31- 70.0-----
2024-06-20 02:24 am W 4.1 7.0----30.31- 70.0-----
2024-06-20 02:18 am W 4.1 8.0----30.31- 70.0-----
2024-06-20 02:12 amWSW 6.0 12.0----30.31- 70.2-----
2024-06-20 02:06 am W 7.0 12.0----30.31- 70.2-----
2024-06-20 02:00 am W 8.0 11.1----30.31-0.03 70.2-----
2024-06-20 01:54 amWSW 6.0 9.9----30.31- 70.0-----
2024-06-20 01:48 am W 7.0 9.9----30.31- 70.0-----
2024-06-20 01:42 amWSW 4.1 8.0----30.31- 69.6-----
2024-06-20 01:36 am W 5.1 8.0----30.31- 69.6-----
2024-06-20 01:30 amWSW 5.1 8.0----30.32- 69.6-----
2024-06-20 01:24 amWSW 5.1 8.9----30.31- 69.6-----
2024-06-20 01:18 amWSW 5.1 7.0----30.31- 69.4-----
2024-06-20 01:12 amWSW 4.1 8.0----30.31- 69.4-----
2024-06-20 01:06 amWSW 5.1 7.0----30.31- 69.6-----
2024-06-20 01:00 amWSW 5.1 7.0----30.32-0.01 69.6-----
2024-06-20 12:54 amWSW 4.1 8.9----30.32- 69.8-----
2024-06-20 12:48 amWSW 6.0 8.9----30.32- 69.6-----
2024-06-20 12:42 amWSW 5.1 8.9----30.32- 70.0-----
2024-06-20 12:36 amWSW 5.1 8.9----30.32- 70.0-----
2024-06-20 12:30 amWSW 5.1 8.0----30.32- 70.0-----
2024-06-20 12:24 amWSW 2.9 6.0----30.32- 70.0-----
2024-06-20 12:18 amWSW 2.9 7.0----30.32- 70.2-----
2024-06-20 12:12 am SW 4.1 7.0----30.32- 70.2-----
2024-06-20 12:06 amWSW 4.1 7.0----30.32- 70.3-----
2024-06-20 12:00 am SW 2.9 6.0----30.32+0.00 70.2-----
2024-06-19 11:54 pm SW 2.9 5.1----30.33- 70.2-----
2024-06-19 11:48 pmWSW 1.9 6.0----30.33- 70.3-----
2024-06-19 11:42 pmWSW 2.9 5.1----30.33- 70.3-----
2024-06-19 11:36 pmWSW 2.9 6.0----30.33- 70.3-----
2024-06-19 11:30 pmWSW 4.1 5.1----30.33- 70.3-----
2024-06-19 11:24 pmWSW 2.9 5.1----30.34- 70.3-----
2024-06-19 11:18 pmWSW 2.9 5.1----30.33- 70.5-----
2024-06-19 11:12 pmWSW 2.9 5.1----30.33- 70.7-----
2024-06-19 11:06 pmWSW 4.1 6.0----30.34- 70.9-----
2024-06-19 11:00 pmWSW 4.1 8.0----30.34+0.00 70.9-----
2024-06-19 10:54 pmWSW 5.1 8.0----30.34- 71.1-----
2024-06-19 10:48 pmWSW 5.1 7.0----30.34- 71.1-----
2024-06-19 10:42 pmWSW 5.1 8.0----30.33- 71.2-----
2024-06-19 10:36 pm W 5.1 8.9----30.34- 71.2-----
2024-06-19 10:30 pm W 4.1 7.0----30.33- 71.2-----
2024-06-19 10:24 pm W 5.1 7.0----30.33- 71.2-----
2024-06-19 10:18 pm W 6.0 8.9----30.33- 71.4-----
2024-06-19 10:12 pm W 6.0 9.9----30.33- 71.2-----
2024-06-19 10:06 pm W 5.1 8.9----30.33- 71.2-----
2024-06-19 10:00 pmWSW 6.0 8.9----30.32-0.01 71.4-----
2024-06-19 09:54 pmWSW 5.1 8.9----30.33- 71.2-----
2024-06-19 09:48 pmWSW 5.1 9.9----30.32- 71.2-----
2024-06-19 09:42 pmWSW 4.1 7.0----30.32- 70.9-----
2024-06-19 09:36 pmWSW 4.1 8.9----30.32- 71.1-----
2024-06-19 09:30 pmWSW 5.1 8.0----30.32- 71.2-----
2024-06-19 09:24 pmWSW 5.1 8.9----30.32- 71.4-----
2024-06-19 09:18 pmWSW 4.1 8.0----30.33- 70.9-----
2024-06-19 09:12 pmWSW 4.1 7.0----30.33- 70.7-----
2024-06-19 09:06 pmWSW 5.1 7.0----30.32- 70.7-----
2024-06-19 09:00 pmWSW 4.1 7.0----30.32+0.01 70.7-----
2024-06-19 08:54 pmWSW 4.1 8.0----30.32- 70.9-----
2024-06-19 08:48 pmWSW 4.1 6.0----30.32- 71.6-----
2024-06-19 08:42 pmWSW 4.1 8.0----30.33- 71.6-----
2024-06-19 08:36 pmWSW 4.1 8.0----30.33- 72.0-----
2024-06-19 08:30 pmWSW 4.1 7.0----30.33- 71.8-----
2024-06-19 08:24 pmWSW 2.9 7.0----30.33- 71.8-----
2024-06-19 08:18 pmWSW 2.9 6.0----30.33- 72.1-----
2024-06-19 08:12 pmWSW 4.1 8.0----30.33- 72.7-----
2024-06-19 08:06 pmWSW 5.1 8.0----30.33- 72.9-----
2024-06-19 08:00 pmWSW 4.1 8.0----30.33+0.02 73.0-----
2024-06-19 07:54 pmWSW 4.1 8.0----30.33- 73.0-----
2024-06-19 07:48 pmWSW 4.1 8.0----30.34- 73.2-----
2024-06-19 07:42 pmWSW 4.1 7.0----30.34- 73.0-----
2024-06-19 07:36 pm SW 4.1 8.0----30.34- 73.0-----
2024-06-19 07:30 pmWSW 2.9 6.0----30.34- 73.0-----
2024-06-19 07:24 pm SW 2.9 6.0----30.34- 74.1-----
2024-06-19 07:00 pmWSW 5.1 8.0----30.33+0.01 75.2-----
2024-06-19 06:54 pmWSW 5.1 8.9----30.34- 75.4-----
2024-06-19 06:48 pmWSW 5.1 8.9----30.34-------
2024-06-19 06:42 pmWSW 6.0 12.0----30.34-------
2024-06-19 06:36 pmWSW 5.1 8.9----30.33-------
2024-06-19 06:30 pmWSW 7.0 12.0----30.33- 76.1-----
2024-06-19 06:24 pmWSW 7.0 8.9----30.33- 76.5-----
2024-06-19 06:18 pmWSW 7.0 12.0----30.33- 76.3-----
2024-06-19 06:12 pmWSW 6.0 9.9----30.32- 76.5-----
2024-06-19 06:06 pmWSW 6.0 12.0----30.32- 76.6-----
2024-06-19 06:00 pmWSW 6.0 9.9----30.31-0.01 76.5-----
2024-06-19 05:54 pmWSW 6.0 13.0----30.32- 76.8-----
2024-06-19 05:48 pmWSW 5.1 11.1----30.32- 77.2-----
2024-06-19 05:42 pmWSW 5.1 8.0----30.32- 77.4-----
2024-06-19 05:36 pmWSW 5.1 8.0----30.32- 77.7-----
2024-06-19 05:30 pmWSW 4.1 7.0----30.31- 77.7-----
2024-06-19 05:24 pm SW 5.1 11.1----30.31- 76.3-----
2024-06-19 05:18 pm SW 5.1 8.9----30.31- 77.0-----
2024-06-19 05:12 pm SW 5.1 9.9----30.31- 78.4-----
2024-06-19 05:06 pmWSW 6.0 8.9----30.31- 78.6-----
2024-06-19 05:00 pm SW 5.1 11.1----30.31-0.01 78.4-----
2024-06-19 04:54 pm SW 6.0 9.9----30.31- 78.6-----
2024-06-19 04:48 pm SW 5.1 8.9----30.31- 78.4-----
2024-06-19 04:42 pm SW 5.1 9.9----30.32- 77.5-----
2024-06-19 04:36 pm SW 5.1 8.0----30.32- 78.4-----
2024-06-19 04:30 pmWSW 4.1 9.9----30.32- 78.3-----
2024-06-19 04:24 pmWSW 5.1 12.0----30.32- 77.9-----
2024-06-19 04:18 pm SW 5.1 9.9----30.32- 77.9-----
2024-06-19 04:12 pm SW 5.1 8.9----30.32- 77.9-----
2024-06-19 04:06 pmWSW 6.0 9.9----30.32- 77.7-----
2024-06-19 04:00 pmWSW 6.0 8.9----30.32-0.02 77.7-----
2024-06-19 03:54 pm SW 6.0 13.0----30.32- 77.4-----
2024-06-19 03:48 pm SW 7.0 14.0----30.32- 76.5-----
2024-06-19 03:42 pm SW 7.0 15.0----30.32- 77.0-----
2024-06-19 03:36 pm SW 8.0 13.0----30.32- 76.6-----
2024-06-19 03:30 pm SW 6.0 13.0----30.32- 77.2-----
2024-06-19 03:24 pm SW 7.0 12.0----30.32- 77.7-----
2024-06-19 03:18 pm SW 7.0 12.0----30.32- 78.1-----
2024-06-19 03:12 pm SW 6.0 13.0----30.32- 77.9-----
2024-06-19 03:06 pm SW 8.0 15.9----30.32- 77.7-----
2024-06-19 03:00 pm SW 5.1 11.1----30.32-0.02 77.7-----
2024-06-19 02:54 pmSSW 7.0 13.0----30.32- 77.2-----
2024-06-19 02:48 pm SW 6.0 12.0----30.32- 77.4-----
2024-06-19 02:42 pm SW 7.0 12.0----30.32- 78.1-----
2024-06-19 02:36 pm SW 5.1 12.0----30.32- 77.9-----
2024-06-19 02:30 pm SW 6.0 13.0----30.32- 78.6-----
2024-06-19 02:24 pm SW 6.0 13.0----30.32- 78.8-----
2024-06-19 02:18 pm SW 6.0 12.0----30.32- 79.3-----
2024-06-19 02:12 pm SW 7.0 15.0----30.32- 79.0-----
2024-06-19 02:06 pmSSW 8.0 12.0----30.32- 78.8-----
2024-06-19 02:00 pmSSW 6.0 12.0----30.33-0.03 79.0-----
2024-06-19 01:54 pm SW 5.1 12.0----30.33- 79.5-----
2024-06-19 01:48 pm SW 6.0 12.0----30.33- 79.0-----
2024-06-19 01:42 pm SW 4.1 9.9----30.33- 79.7-----
2024-06-19 01:36 pm SW 5.1 9.9----30.33- 79.0-----
2024-06-19 01:30 pmSSW 7.0 9.9----30.33- 79.2-----
2024-06-19 01:24 pm SW 5.1 11.1----30.33- 78.8-----
2024-06-19 01:18 pm SW 5.1 11.1----30.33- 78.8-----
2024-06-19 01:12 pm SW 7.0 11.1----30.34- 77.9-----
2024-06-19 01:06 pm SW 7.0 11.1----30.34- 77.9-----
2024-06-19 01:00 pm SW 7.0 9.9----30.34-0.02 77.9-----
2024-06-19 12:54 pm SW 6.0 11.1----30.34- 78.1-----
2024-06-19 12:48 pm SW 5.1 9.9----30.34- 78.6-----
2024-06-19 12:42 pmSSW 5.1 11.1----30.34- 79.5-----
2024-06-19 12:36 pm SW 5.1 11.1----30.34- 79.9-----
2024-06-19 12:30 pm SW 4.1 11.1----30.34- 80.6-----
2024-06-19 12:24 pm SW 4.1 8.0----30.34- 79.9-----
2024-06-19 12:18 pm SW 5.1 9.9----30.34- 79.5-----
2024-06-19 12:12 pm SW 5.1 8.0----30.35- 79.3-----
2024-06-19 12:06 pm SW 6.0 9.9----30.34- 78.6-----
2024-06-19 12:00 pm SW 2.9 9.9----30.35-0.01 79.2-----
2024-06-19 11:54 am SW 6.0 9.9----30.35- 78.4-----
2024-06-19 11:48 am SW 6.0 11.1----30.35- 78.3-----
2024-06-19 11:42 am SW 6.0 11.1----30.34- 78.8-----
2024-06-19 11:36 am SW 6.0 8.9----30.34- 78.1-----
2024-06-19 11:30 am SW 6.0 9.9----30.35- 78.6-----
2024-06-19 11:24 am SW 5.1 8.0----30.35- 79.3-----
2024-06-19 11:18 amSSW 5.1 8.0----30.35- 78.8-----
2024-06-19 11:12 am SW 4.1 7.0----30.35- 78.3-----
2024-06-19 11:06 am SW 4.1 8.0----30.35- 78.4-----
2024-06-19 11:00 am SW 2.9 8.0----30.35+0.00 78.3-----
2024-06-19 10:54 am SW 4.1 8.0----30.35- 77.5-----